EW5069 Weather Reports


time (UTC)temp
C
wind
direction
speed
KPH
gust
KPH
rain 1hr
cm
rain 24hr
cm
rain mn
cm
humidity
%
barometer
mb
20260509043046 11 360 0.0 0.0 0.00 0.69 0.00 90 1008.1
20260509041544 11 190 0.0 0.0 0.00 0.69 0.00 90 1008.1
20260509040042 11 190 0.0 0.0 0.00 0.69 0.00 90 1008.2
20260509034543 11 173 0.0 0.0 0.00 0.69 0.69 90 1008.1
20260509033041 11 173 0.0 0.0 0.00 0.69 0.69 90 1008.3
20260509031546 11 173 0.0 0.0 0.00 0.69 0.69 90 1008.3
20260509030042 11 209 0.0 0.0 0.00 0.69 0.69 90 1008.4
20260509024538 11 360 0.0 0.0 0.00 0.69 0.69 90 1008.3
20260509023039 11 360 0.0 0.0 0.00 0.69 0.69 90 1008.4
20260509021537 11 360 0.0 0.0 0.00 0.69 0.69 90 1008.2
20260509020036 11 360 0.0 0.0 0.00 0.69 0.69 90 1008.3
20260509014536 12 360 0.0 0.0 0.00 0.69 0.69 90 1008.3
20260509013038 12 360 0.0 0.0 0.00 0.69 0.69 90 1008.4
20260509011535 12 172 0.0 0.0 0.00 0.69 0.69 90 1008.3
20260509010034 12 194 0.0 0.0 0.00 0.69 0.69 90 1008.3
20260509004538 12 360 0.0 0.0 0.00 0.69 0.69 90 1008.3
20260509003038 12 194 0.0 0.0 0.00 0.69 0.69 89 1008.4
20260509001532 12 196 0.0 0.0 0.00 0.69 0.69 89 1008.4
20260509000037 12 180 0.0 0.0 0.00 0.69 0.69 89 1008.4
20260508234537 12 180 0.0 0.0 0.00 0.69 0.69 89 1008.4
20260508233032 12 360 0.0 0.0 0.00 0.69 0.69 90 1008.5
20260508231530 12 194 0.0 0.0 0.00 0.69 0.69 89 1008.6
20260508230029 13 176 0.0 0.0 0.00 0.69 0.69 89 1008.6
20260508224533 13 360 0.0 0.0 0.00 0.71 0.69 89 1008.5
20260508223034 13 360 0.0 0.0 0.00 0.71 0.69 90 1008.6
20260508221531 13 191 0.0 0.0 0.00 0.71 0.69 90 1008.6
20260508220027 13 360 0.0 0.0 0.00 0.71 0.69 90 1008.7
20260508214527 12 186 0.0 0.0 0.00 0.71 0.69 90 1008.5
20260508213026 12 178 0.0 0.0 0.00 0.71 0.69 89 1008.6
20260508211524 12 360 0.0 0.0 0.08 0.71 0.69 89 1008.8
20260508210022 12 360 0.0 0.0 0.13 0.71 0.69 90 1009.0
20260508204521 13 180 0.0 0.0 0.18 0.71 0.69 90 1009.1
20260508203019 13 360 0.0 0.0 0.23 0.71 0.69 90 1009.5
20260508201523 13 226 0.0 0.0 0.23 0.64 0.61 90 1009.7
20260508200020 13 360 0.0 0.0 0.28 0.56 0.53 90 1009.8
20260508194513 12 269 0.0 0.0 0.30 0.53 0.51 89 1010.0
20260508193017 13 360 0.0 0.0 0.28 0.46 0.43 89 1010.2
20260508191516 13 360 0.0 0.0 0.28 0.41 0.38 89 1010.4
20260508190011 13 360 0.0 0.0 0.15 0.28 0.25 87 1010.2
20260508184510 14 360 0.0 0.0 0.10 0.23 0.20 84 1010.1
20260508183010 14 360 0.0 0.0 0.05 0.18 0.15 82 1010.2
20260508181519 15 360 0.0 0.0 0.00 0.13 0.10 74 1010.1
20260508180006 16 360 0.0 0.0 0.00 0.13 0.10 70 1010.2
20260508174507 16 360 0.0 0.0 0.00 0.13 0.10 71 1010.3
20260508173005 16 360 0.0 0.0 0.00 0.13 0.10 69 1010.4
20260508171559 15 199 0.0 0.0 0.00 0.13 0.10 73 1010.7
20260508170056 15 200 0.0 0.0 0.00 0.13 0.10 75 1011.0
20260508164553 14 360 0.0 0.0 0.00 0.13 0.10 73 1011.4
20260508163050 15 221 0.0 0.0 0.00 0.13 0.10 71 1011.7
20260508161600 14 360 0.0 0.0 0.00 0.13 0.10 70 1011.9
20260508160043 14 360 0.0 0.0 0.00 0.13 0.10 75 1012.1
20260508154542 14 360 0.0 0.0 0.00 0.13 0.10 73 1012.1
20260508153045 13 188 0.0 0.0 0.00 0.13 0.10 72 1012.1
20260508151536 13 360 0.0 0.0 0.00 0.13 0.10 74 1012.2
20260508150032 13 190 0.0 0.0 0.00 0.13 0.10 75 1012.3
20260508144531 12 360 0.0 0.0 0.00 0.13 0.10 74 1012.6
20260508143029 12 208 0.0 0.0 0.00 0.13 0.10 76 1012.7
20260508141526 12 360 0.0 0.0 0.00 0.13 0.10 80 1012.7
20260508140026 11 360 0.0 0.0 0.00 0.13 0.10 82 1012.9
20260508134520 10 360 0.0 0.0 0.00 0.13 0.10 83 1013.1
20260508133021 10 218 0.0 0.0 0.00 0.13 0.10 81 1013.0
20260508131520 11 360 0.0 0.0 0.00 0.13 0.10 83 1012.7
20260508130024 10 173 0.0 0.0 0.00 0.13 0.10 85 1012.5
20260508124514 10 132 0.0 0.0 0.00 0.13 0.10 86 1012.9
20260508123012 9 186 0.0 0.0 0.00 0.13 0.10 87 1012.8
20260508121509 9 193 0.0 0.0 0.05 0.13 0.10 87 1012.8
20260508120006 8 193 0.0 0.0 0.08 0.13 0.10 88 1012.8
20260508114506 8 360 0.0 0.0 0.10 0.13 0.10 88 1012.6
20260508113010 8 190 0.0 0.0 0.10 0.13 0.10 88 1012.5
20260508111507 8 360 0.0 0.0 0.05 0.08 0.05 88 1012.8
20260508110002 9 360 0.0 0.0 0.03 0.05 0.03 86 1012.5
20260508104501 10 360 0.0 0.0 0.00 0.03 0.00 82 1012.6
20260508103000 10 360 0.0 0.0 0.00 0.03 0.00 78 1012.4
20260508101601 10 360 0.0 0.0 0.00 0.03 0.00 79 1012.5
20260508100059 10 360 0.0 0.0 0.00 0.03 0.00 80 1012.3
20260508094607 10 360 0.0 0.0 0.00 0.03 0.00 79 1012.0
20260508093058 10 360 0.0 0.0 0.00 0.03 0.00 79 1012.5
20260508091602 10 360 0.0 0.0 0.00 0.03 0.00 76 1012.6
20260508090056 10 209 0.0 0.0 0.00 0.03 0.00 75 1012.8
20260508084553 10 360 0.0 0.0 0.00 0.03 0.00 76 1012.5
20260508083056 10 360 0.0 0.0 0.00 0.03 0.00 79 1012.4
20260508081605 9 360 0.0 0.0 0.00 0.03 0.00 82 1012.3
20260508080054 9 360 0.0 0.0 0.00 0.03 0.00 81 1012.4
20260508074547 9 360 0.0 0.0 0.00 0.03 0.00 79 1012.4
20260508073045 10 360 0.0 0.0 0.00 0.03 0.00 77 1012.6
20260508071545 9 360 0.0 0.0 0.00 0.03 0.00 77 1012.6
20260508070046 9 360 0.0 0.0 0.00 0.03 0.00 78 1012.9
20260508064542 8 360 0.0 0.0 0.00 0.03 0.00 79 1012.9
20260508063041 9 192 0.0 0.0 0.00 0.03 0.00 79 1012.9
20260508061540 9 360 0.0 0.0 0.00 0.03 0.00 78 1012.8
20260508060036 8 360 0.0 0.0 0.00 0.03 0.00 82 1012.9
20260508054541 8 193 0.0 0.0 0.00 0.03 0.00 83 1013.0
20260508053033 8 360 0.0 0.0 0.00 0.03 0.00 84 1013.1
20260508051533 8 183 0.0 0.0 0.00 0.03 0.00 84 1013.2
20260508050030 8 190 0.0 0.0 0.00 0.03 0.00 83 1013.2
20260508044528 8 360 0.0 0.0 0.00 0.03 0.00 85 1013.2